ARIANE 5 R/B, 32254

Orbit data source: Space-Track

ARIANE 5 R/B, 32254 is space debris in HEO originally from a launch on Fri, 05 Oct 2007 UTC launched from the French Guiana (FRGUI). Debris objects in space refer to the collection of defunct objects orbiting the Earth. Examples of debris include non-operational satellites, rocket bodies, and fragments generated from explosions, collisions, or faulty payload assembly.

Loading next visibility...
Identifier
32254, 2007-044C
Orbit
HEO
Country
Flag of FRFR
Related business
Manufacturer
EADS/Bremen
Mission
Spacecraft
Bus & Motor
EPS+, AESTUS
Mass
3,057 kg wet, 3,057 kg dry
Launch date (UTC)
2007-10-05 (19 years ago)
Launch vehicle
Unknown
Launch site
French Guiana (FRGUI)
Object type
Payload
Rocket body
Debris
Shape & HBR
Cone + Cyl, 2.7 m
Radar Cross Section
28.860 m², Large (>1 m²)

Expand to show TLE details & history
Last TLE update: 2 days ago

TLE from 2 days ago
0 ARIANE 5 R/B
1 32254U 07044C   26171.10828246  .00001646  00000-0  13997-2 0  9997
2 32254   4.7789 348.5001 7083023 100.9972 339.3578  2.49518034168408
Epoch: 2026-06-20T02:35Z
TLE epoch observation values (Epoch: 2026-06-20T02:35:55.604Z)
Latitude
-0.00002°
Longitude
41.19436°
Altitude
6,816.126 km
Speed
6.562 km/s
True Right ascension
23h 14m 00s
True Declination
0° 00' 00"
Sunlit
Object was in daylight at epoch
Visualization orbit readout
Latitude
Unknown
Longitude
Unknown
Altitude
Unknown
Speed
Unknown
Apparent Right ascension
Unknown
Apparent Declination
Unknown
Sunlit
N/A
Visualization observer readout
Local Sidereal Time
23:20:14
Azimuth
Unknown
Elevation
Unknown
Doppler factor
Unknown
Orbital elements
Apogee altitude
32,856.316 km
Perigee altitude
321.263 km
Semi-major axis
22,966.926 km
Eccentricity
0.7083
Inclination
4.7789°
RAAN
348.5001°
Arg. of periapsis
100.9972°
True anomaly
259.19013°
Mean anomaly
339.3578°
Eccentric anomaly
306.90768°
Mean motion
0.62358 °/min
Orbital period
577.32 mins
BSTAR
0.0013997
Loading maneuver chart data...
Computing Atmospheric mass density...
Loading historical data...
Loading historical data...
Loading historical data...
Loading historical data...
Loading historical data...
Loading historical data...
Loading historical data...
Other satellites on launch #44 in the year 2007 (2007-10-05 UTC)

Documentation

Showing up to 5 results
|